Content
SEND FEEDBACK

Daily
Averages
Monthly
Summary
United Kingdom

LONDON, ENGLAND


Home > Europe > United Kingdom > England
Elevation: 61 meters     Latitude: 51 09N     Longitude: 000 11W

WEATHER
 
SELECT A DAY
Number of Records: 299,526;   Date Range: 7/1/96 - 12/20/14
 
SHARE

PRINT THIS DATA

[ ← Previous Day ]
WEATHER ALMANAC - 10 APRIL, 2014
[ Next Day → ]
[ °F ]   °C
Weather ElementAverageHighLow
Temperature10.4 °C15 °C (1:50 pm)4 °C (5:50 am)
Dewpoint5.3 °C6 °C (12:50 am)3 °C (5:50 am)
Humidity72.4 %100 % (2:50 am)51 % (5:50 pm)
Barometer1022.4 hPa1024 hPa (12:50 am)1020 hPa (4:50 pm)
Wind Speed6.4 km/h13 km/h (2:20 pm)
Weather ElementAverage
Visibility9.8 km
Wind DirectionSSE (174.3 °)

Weather ElementTotal
Precipitation---
Heating Degree Days8.8 (Base 18.3)
Averaged from 47 records on 10 April, 2014
WEATHER CONDITIONS BREAKOUT
WIND DIRECTION BREAKOUT
WEATHER BY HOUR - 10 APRIL, 2014
[ °F ]   °C
Local TimeTemperatureDewpointHumidityBarometerVisibilityWind DirectionWind SpeedGust SpeedPrecipitationEventsConditions
12:50 AM7 °C6 °C93 %1024 hPaSW (220°)5.6 km/hClear
1:20 AM7 °C5 °C87 %1024 hPa9 kmSSW (210°)5.6 km/h
1:50 AM7 °C6 °C93 %1024 hPaSouth (190°)3.7 km/hClear
2:20 AM6 °C5 °C93 %1024 hPaSSW (210°)3.7 km/hClear
2:50 AM6 °C6 °C100 %1024 hPaSouth (190°)3.7 km/hClear
3:20 AM6 °C5 °C93 %1024 hPaSSW (210°)3.7 km/hClear
3:50 AM5 °C5 °C100 %1023 hPaCalmClear
4:20 AM5 °C5 °C100 %1023 hPaVariable3.7 km/hClear
4:50 AM5 °C5 °C100 %1023 hPaSouth (190°)3.7 km/hClear
5:20 AM5 °C5 °C100 %1023 hPaCalmClear
5:50 AM4 °C3 °C93 %1023 hPaCalmClear
6:20 AM4 °C3 °C93 %1023 hPa9 kmCalm
6:50 AM5 °C4 °C93 %1023 hPa10 kmVariable3.7 km/hScattered Clouds
7:20 AM6 °C5 °C93 %1024 hPa10 kmCalmScattered Clouds
7:50 AM7 °C6 °C93 %1024 hPa10 kmVariable3.7 km/hScattered Clouds
8:20 AM8 °C6 °C87 %1024 hPa10 kmVariable5.6 km/hScattered Clouds
8:50 AM9 °C6 °C82 %1024 hPa10 kmNW (320°)7.4 km/hScattered Clouds
9:20 AM10 °C6 °C76 %1024 hPa10 kmVariable5.6 km/hMostly Cloudy
9:50 AM11 °C5 °C67 %1023 hPa10 kmWNW (300°)9.3 km/hMostly Cloudy
10:20 AM11 °C5 °C67 %1023 hPa10 kmWNW (300°)7.4 km/hScattered Clouds
10:50 AM12 °C6 °C67 %1023 hPa10 kmVariable3.7 km/hPartly Cloudy
11:20 AM13 °C6 °C63 %1023 hPa10 kmVariable5.6 km/hPartly Cloudy
11:50 AM13 °C5 °C58 %1023 hPa10 kmWSW (240°)7.4 km/hScattered Clouds
12:20 PM14 °C6 °C59 %1023 hPa10 kmVariable9.3 km/hScattered Clouds
12:50 PM13 °C6 °C63 %1022 hPa10 kmWNW (290°)9.3 km/hScattered Clouds
1:20 PM14 °C6 °C59 %1022 hPa10 kmWNW (300°)9.3 km/hScattered Clouds
1:50 PM15 °C6 °C55 %1022 hPa10 kmWSW (250°)11.1 km/hScattered Clouds
2:20 PM14 °C6 °C59 %1022 hPa10 kmWest (280°)13 km/hScattered Clouds
2:50 PM15 °C6 °C55 %1021 hPa10 kmWest (260°)9.3 km/hScattered Clouds
3:20 PM14 °C5 °C55 %1021 hPa10 kmVariable3.7 km/hScattered Clouds
3:50 PM14 °C5 °C55 %1021 hPa10 kmVariable5.6 km/hScattered Clouds
4:20 PM14 °C5 °C55 %1021 hPaVariable5.6 km/hClear
4:50 PM14 °C5 °C55 %1020 hPa10 kmVariable5.6 km/hScattered Clouds
5:20 PM14 °C5 °C55 %1020 hPaWest (280°)7.4 km/hClear
5:50 PM15 °C5 °C51 %1020 hPaWSW (250°)7.4 km/hClear
6:20 PM14 °C5 °C55 %1020 hPa10 kmWNW (290°)11.1 km/hScattered Clouds
6:50 PM14 °C5 °C55 %1020 hPaWNW (300°)13 km/hClear
7:20 PM14 °C5 °C55 %1020 hPaNW (320°)11.1 km/hClear
7:50 PM13 °C5 °C58 %1020 hPaNW (310°)11.1 km/hClear
8:20 PM13 °C5 °C58 %1020 hPaNW (310°)11.1 km/hClear
8:50 PM12 °C5 °C62 %1021 hPaNW (310°)9.3 km/hClear
9:20 PM12 °C5 °C62 %1021 hPaWNW (300°)9.3 km/hClear
9:50 PM12 °C5 °C62 %1021 hPaWNW (300°)7.4 km/hClear
10:20 PM12 °C5 °C62 %1021 hPaNW (310°)7.4 km/hClear
10:50 PM11 °C5 °C67 %1021 hPaNW (310°)5.6 km/hClear
11:20 PM11 °C6 °C71 %1021 hPaNW (320°)9.3 km/hClear
11:50 PM11 °C6 °C71 %1021 hPaNW (320°)7.4 km/hClear
Hourly data recorded from EGKK, located 0 kilometers away from London, England







STORIES FROM OUR PARTNERS